Weather History for Doha, Qatar

Change the Weather History Date:

Saturday, April 27, 2013

  Actual Average Record
Temperature  
Mean Temperature 75 °F -  
Max Temperature 79 °F 100 °F 105 °F (1999)
Min Temperature 71 °F 76 °F 69 °F (1997)
Cooling Degree Days 10    
Growing Degree Days 25 (Base 50)    
Moisture  
Dew Point 54 °F    
Average Humidity 48    
Maximum Humidity 69    
Minimum Humidity 19    
Precipitation  
Precipitation 0.02 in 0.01 in - ()
Sea Level Pressure  
Sea Level Pressure 29.98 in    
Wind  
Wind Speed 5 mph ()    
Max Wind Speed 12 mph    
Max Gust Speed -    
Visibility 6.4 miles    
Events Rain    
Averages and records for this station are not official NWS values.
T = Trace of Precipitation, MM = Missing Value Source: Averaged Metar Reports

Daily Weather History Graph

Daily Weather History Graph

Search for Another Location

Airport:

Trip Planner

Search our weather history database for the weather conditions in past years. The results will help you decide how hot, cold, wet, or windy it might be!

Date:

Astronomy

Apr. 27, 2013 Rise Set
Actual Time 5:00 AM AST 6:02 PM AST
Civil Twilight 4:36 AM AST 6:26 PM AST
Nautical Twilight 4:08 AM AST 6:54 PM AST
Astronomical Twilight 3:39 AM AST 7:23 PM AST
Moon 7:55 PM AST (4/27) 6:06 AM AST (4/27)
Length of Visible Light 13h 49m
Length of Day
13h 01m
Waning Gibbous, 97% of the Moon is Illuminated
Apr 27
Waning Gibbous
May 2
Last Quarter
May 10
New
May 18
First Quarter
May 25
Full

Hourly Weather History & Observations

Time (AST) Temp. Dew Point Humidity Pressure Visibility Wind Dir Wind Speed Gust Speed Precip Events Conditions
12:00 AM 78.8 °F 42.8 °F 28% 29.95 in - NNW 5.8 mph - N/A   Clear
12:30 AM 78.8 °F 44.6 °F 30% 29.95 in - WSW 4.6 mph - N/A   Clear
1:00 AM 78.8 °F 41.0 °F 26% 29.95 in - NW 3.5 mph - N/A   Clear
1:30 AM 77.0 °F 42.8 °F 29% 29.95 in 6.2 mi NW 5.8 mph - N/A Rain Light Rain
2:00 AM 77.0 °F 44.6 °F 32% 29.95 in 6.2 mi NW 4.6 mph - N/A   Mostly Cloudy
2:30 AM 77.0 °F 41.0 °F 28% 29.95 in 6.2 mi NW 5.8 mph - N/A   Mostly Cloudy
3:00 AM 77 °F 43 °F 19% 29.96 in 7 mi WNW 5.8 mph - -   Partly Cloudy
3:00 AM 77.0 °F 42.8 °F 29% 29.95 in 6.2 mi WNW 5.8 mph - N/A   Mostly Cloudy
3:30 AM 77.0 °F 53.6 °F 44% 29.95 in 6.2 mi NW 4.6 mph - N/A   Mostly Cloudy
4:00 AM 75.2 °F 55.4 °F 50% 29.95 in - NW 8.1 mph - N/A   Clear
4:30 AM 75.2 °F 55.4 °F 50% 29.95 in - NW 10.4 mph - N/A   Clear
5:00 AM 75.2 °F 59.0 °F 57% 29.95 in - NW 8.1 mph - N/A   Clear
5:30 AM 75.2 °F 59.0 °F 57% 29.98 in - WNW 5.8 mph - N/A   Clear
6:00 AM 75.2 °F 59.0 °F 57% 29.98 in 6.2 mi WNW 5.8 mph - N/A Rain Light Rain
6:30 AM 75.2 °F 60.8 °F 61% 29.98 in 6.2 mi West 4.6 mph - N/A Rain Light Rain
7:00 AM 73.4 °F 62.6 °F 69% 29.98 in 6.2 mi Variable 2.3 mph - N/A Rain Light Rain
7:30 AM 73.4 °F 62.6 °F 69% 29.98 in 6.2 mi Variable 2.3 mph - N/A Rain Light Rain
8:00 AM 75.2 °F 57.2 °F 53% 30.01 in 6.2 mi Variable 3.5 mph - N/A Rain Light Rain
8:30 AM 75.2 °F 57.2 °F 53% 30.01 in 6.2 mi WSW 4.6 mph - N/A Rain Light Rain
9:00 AM 77 °F 53 °F 32% 30.04 in 9 mi SW 4.6 mph - - Rain Light Rain
9:00 AM 77.0 °F 53.6 °F 44% 30.04 in - SW 4.6 mph - N/A   Clear
9:30 AM 78.8 °F 51.8 °F 39% 30.04 in - SSW 5.8 mph - N/A   Clear
10:00 AM 78.8 °F 50.0 °F 36% 30.04 in - SSW 3.5 mph - N/A   Clear
11:00 AM 75.2 °F 57.2 °F 53% 30.04 in 6.2 mi South 11.5 mph - N/A   Overcast
12:00 PM 75.2 °F 55.4 °F 50% 30.01 in 6.2 mi South 8.1 mph - N/A Rain Light Rain
1:00 PM 71.6 °F 59.0 °F 64% 30.01 in 6.2 mi SE 5.8 mph - N/A Rain Light Rain
2:00 PM 73.4 °F 59.0 °F 61% 29.98 in 6.2 mi South 6.9 mph - N/A   Mostly Cloudy
2:30 PM 75.2 °F 59.0 °F 57% 29.98 in - South 6.9 mph - N/A   Clear
3:00 PM 74 °F 59 °F 51% 29.98 in 6 mi SSW 6.9 mph - -   Partly Cloudy
3:00 PM 75.2 °F 59.0 °F 57% 29.98 in - SSW 6.9 mph - N/A   Clear
3:30 PM 75.2 °F 57.2 °F 53% 29.98 in - SSW 4.6 mph - N/A   Clear
4:00 PM 75.2 °F 59.0 °F 57% 29.95 in - South 5.8 mph - N/A   Clear
4:30 PM 75.2 °F 57.2 °F 53% 29.95 in - SSW 4.6 mph - N/A   Clear
5:00 PM 75.2 °F 57.2 °F 53% 29.95 in - SSW 5.8 mph - N/A   Clear
5:30 PM 75.2 °F 57.2 °F 53% 29.95 in - South 5.8 mph - N/A   Clear
6:00 PM 73.4 °F 57.2 °F 57% 29.95 in - SSE 5.8 mph - N/A   Clear
6:30 PM 73.4 °F 55.4 °F 53% 29.98 in - South 4.6 mph - N/A   Clear
7:00 PM 73.4 °F 55.4 °F 53% 29.98 in - South 3.5 mph - N/A   Clear
7:30 PM 73.4 °F 53.6 °F 50% 29.98 in - South 3.5 mph - N/A   Clear
8:00 PM 73.4 °F 55.4 °F 53% 29.98 in - Variable 2.3 mph - N/A   Clear
8:30 PM 73.4 °F 55.4 °F 53% 29.98 in - Variable 1.2 mph - N/A   Clear
9:00 PM 73 °F 55 °F 43% 29.99 in 7 mi 1.2 mph - -   Partly Cloudy
9:00 PM 73.4 °F 55.4 °F 53% 29.98 in - Variable 1.2 mph - N/A   Clear
9:30 PM 73.4 °F 55.4 °F 53% 29.98 in - South 3.5 mph - N/A   Clear
10:00 PM 73.4 °F 53.6 °F 50% 29.98 in - SSW 4.6 mph - N/A   Clear
10:30 PM 73.4 °F 55.4 °F 53% 29.98 in - SSW 3.5 mph - N/A   Clear
11:00 PM 73.4 °F 55.4 °F 53% 29.98 in - Variable 2.3 mph - N/A   Clear